Data for 03/08/2017

Time Sea-Level Adjusted Pressure Absolute Pressure Temperature Relative Humidity Dew Point   
(mb) (inHg) (mb) (inHg) (C) (F) (%) (C) (F)
00:05 1014 29.94 843 24.89 0.1 32.1 48 -9.7 14.6
00:10 1014 29.94 843 24.89 0.1 32.1 48 -9.7 14.5
00:15 1014 29.94 843 24.89 -0 32 49 -9.6 14.7
00:20 1014 29.94 843 24.89 -0 31.9 49 -9.6 14.8
00:25 1014 29.94 843 24.89 0 32 49 -9.6 14.7
00:30 1013 29.91 843 24.89 0.1 32.1 48 -9.6 14.7
00:35 1013 29.91 843 24.89 0.3 32.5 47 -9.6 14.7
00:40 1013 29.91 843 24.89 0.6 33.1 45 -9.9 14.1
00:45 1013 29.91 843 24.89 1 33.7 45 -9.8 14.4
00:50 1013 29.91 842 24.86 1 33.8 44 -9.8 14.4
00:55 1013 29.91 843 24.89 1 33.8 45 -9.7 14.5
01:00 1013 29.91 843 24.89 0.9 33.6 44 -10 13.9
01:05 1013 29.91 842 24.86 1.2 34.2 43 -9.9 14.1
01:10 1013 29.91 842 24.86 1.3 34.3 47 -8.9 15.9
01:15 1013 29.91 842 24.86 0.8 33.4 47 -9.4 15.1
01:20 1013 29.91 843 24.89 0.9 33.6 44 -10.1 13.8
01:25 1013 29.91 843 24.89 1.5 34.7 42 -10.1 13.8
01:30 1013 29.91 843 24.89 1.8 35.2 41 -10 13.9
01:35 1013 29.91 843 24.89 1.8 35.3 42 -9.7 14.5
01:40 1013 29.91 843 24.89 1.8 35.2 41 -10.1 13.9
01:45 1013 29.91 843 24.89 2 35.7 43 -9.4 15
01:50 1013 29.91 843 24.89 2 35.5 41 -9.9 14.1
01:55 1013 29.91 843 24.89 2.1 35.8 42 -9.6 14.7
02:00 1013 29.91 843 24.89 2.6 36.7 40 -9.6 14.8
02:05 1013 29.91 843 24.89 2.7 36.8 41 -9.4 15.2
02:10 1013 29.91 843 24.89 2.5 36.6 41 -9.3 15.3
02:15 1014 29.94 843 24.89 2.5 36.5 42 -9.1 15.6
02:20 1013 29.91 843 24.89 2.5 36.6 42 -9.1 15.6
02:25 1013 29.91 843 24.89 2.9 37.3 41 -8.9 15.9
02:30 1013 29.91 843 24.89 3 37.4 44 -8.2 17.2
02:35 1013 29.91 843 24.89 3.5 38.3 42 -8.1 17.4
02:40 1013 29.91 842 24.86 4.1 39.3 41 -8 17.7
02:45 1013 29.91 842 24.86 4.2 39.6 42 -7.6 18.3
02:50 1013 29.91 842 24.86 4.2 39.5 42 -7.7 18.1
02:55 1013 29.91 842 24.86 4.2 39.6 42 -7.7 18.2
03:00 1013 29.91 842 24.86 4.3 39.7 41 -7.7 18.1
03:05 1013 29.91 842 24.86 4.4 39.8 41 -7.8 18
03:10 1013 29.91 842 24.86 4.3 39.8 42 -7.3 18.8
03:15 1013 29.91 842 24.86 4.1 39.4 42 -7.6 18.3
03:20 1013 29.91 842 24.86 4.2 39.6 41 -7.8 18
03:25 1013 29.91 842 24.86 4.5 40 42 -7.5 18.5
03:30 1013 29.91 842 24.86 4.5 40.1 42 -7.2 19
03:35 1013 29.91 842 24.86 4.4 39.9 40 -8 17.7
03:40 1013 29.91 842 24.86 4.7 40.5 40 -7.8 18
03:45 1013 29.91 842 24.86 4.6 40.3 41 -7.5 18.5
03:50 1013 29.91 842 24.86 4.5 40 42 -7.5 18.5
03:55 1013 29.91 842 24.86 4.4 39.9 41 -7.6 18.3
04:00 1013 29.91 842 24.86 4.5 40.1 41 -7.6 18.4
04:05 1013 29.91 842 24.86 4.5 40.1 41 -7.5 18.5
04:10 1013 29.91 842 24.86 4.5 40.1 42 -7.4 18.7
04:15 1013 29.91 842 24.86 4.5 40.1 41 -7.6 18.4
04:20 1013 29.91 842 24.86 4.6 40.2 41 -7.5 18.4
04:25 1013 29.91 842 24.86 4.6 40.3 41 -7.6 18.4
04:30 1013 29.91 842 24.86 4.7 40.5 40 -7.8 18
04:35 1013 29.91 842 24.86 4.9 40.8 40 -7.7 18.2
04:40 1013 29.91 842 24.86 5 40.9 39 -7.7 18.1
04:45 1013 29.91 842 24.86 5 41 39 -7.7 18.1
04:50 1013 29.91 842 24.86 5 41 40 -7.6 18.3
04:55 1013 29.91 842 24.86 5 41.1 40 -7.6 18.4
05:00 1013 29.91 842 24.86 5.1 41.1 39 -7.6 18.3
05:05 1013 29.91 842 24.86 5.1 41.1 39 -7.6 18.2
05:10 1013 29.91 842 24.86 5.1 41.2 40 -7.5 18.5
05:15 1013 29.91 842 24.86 5 41 41 -7.2 19
05:20 1013 29.91 842 24.86 5 41 40 -7.6 18.3
05:25 1013 29.91 842 24.86 5 41.1 40 -7.5 18.5
05:30 1013 29.91 842 24.86 5 41 40 -7.5 18.4
05:35 1013 29.91 842 24.86 5.1 41.2 39 -7.7 18.2
05:40 1013 29.91 842 24.86 5.2 41.3 39 -7.8 18
05:45 1013 29.91 842 24.86 5.4 41.7 39 -7.7 18.2
05:50 1013 29.91 842 24.86 5.3 41.5 39 -7.5 18.4
05:55 1013 29.91 842 24.86 5.3 41.5 39 -7.6 18.3
06:00 1013 29.91 842 24.86 5.3 41.5 39 -7.5 18.5
06:05 1013 29.91 842 24.86 5.3 41.5 39 -7.5 18.4
06:10 1013 29.91 842 24.86 5.3 41.5 39 -7.5 18.5
06:15 1013 29.91 842 24.86 5.3 41.5 39 -7.5 18.5
06:20 1013 29.91 842 24.86 5.3 41.6 39 -7.5 18.4
06:25 1013 29.91 842 24.86 5.4 41.6 39 -7.5 18.4
06:30 1013 29.91 842 24.86 5.4 41.8 39 -7.5 18.5
06:35 1013 29.91 842 24.86 5.4 41.7 38 -7.9 17.8
06:40 1013 29.91 842 24.86 5.6 42.1 37 -7.8 17.9
06:45 1013 29.91 842 24.86 5.6 42.2 37 -7.9 17.7
06:50 1013 29.91 842 24.86 5.7 42.2 37 -7.9 17.8
06:55 1013 29.91 842 24.86 5.6 42.1 38 -7.7 18.2
07:00 1013 29.91 842 24.86 5.5 41.9 39 -7.3 18.9
07:05 1013 29.91 842 24.86 5.5 41.9 37 -8.1 17.4
07:10 1013 29.91 842 24.86 5.6 42.1 38 -7.5 18.5
07:15 1013 29.91 842 24.86 5.6 42.1 38 -7.5 18.5
07:20 1013 29.91 842 24.86 5.5 41.9 38 -7.6 18.3
07:25 1013 29.91 842 24.86 5.6 42.1 38 -7.6 18.3
07:30 1013 29.91 842 24.86 5.6 42 38 -7.8 18
07:35 1013 29.91 842 24.86 5.6 42 38 -7.7 18.1
07:40 1013 29.91 842 24.86 5.6 42.1 37 -7.9 17.8
07:45 1013 29.91 842 24.86 5.6 42.1 38 -7.5 18.4
07:50 1013 29.91 842 24.86 5.6 42.1 37 -8 17.6
07:55 1013 29.91 842 24.86 5.7 42.2 37 -7.8 17.9
08:00 1013 29.91 842 24.86 5.6 42.1 38 -7.6 18.3
08:05 1013 29.91 842 24.86 5.6 42.1 37 -7.9 17.8
08:10 1013 29.91 842 24.86 5.7 42.2 37 -7.8 17.9
08:15 1013 29.91 842 24.86 5.6 42.2 37 -7.9 17.8
08:20 1013 29.91 842 24.86 5.8 42.4 37 -7.9 17.7
08:25 1013 29.91 842 24.86 5.8 42.5 37 -7.8 17.9
08:30 1013 29.91 842 24.86 5.8 42.5 37 -7.8 17.9
08:35 1013 29.91 842 24.86 5.9 42.7 36 -8 17.6
08:40 1013 29.91 842 24.86 6.1 42.9 36 -7.9 17.8
08:45 1013 29.91 842 24.86 6.1 42.9 36 -7.9 17.7
08:50 1013 29.91 842 24.86 6.1 43.1 35 -8 17.5
08:55 1013 29.91 842 24.86 6.2 43.2 36 -7.8 18
09:00 1013 29.91 842 24.86 6.3 43.4 35 -8 17.6
09:05 1013 29.91 842 24.86 6.6 43.9 35 -7.8 17.9
09:10 1013 29.91 842 24.86 6.9 44.3 35 -7.7 18.1
09:15 1013 29.91 842 24.86 7.2 44.9 33 -7.9 17.9
09:20 1013 29.91 842 24.86 7.2 45 34 -7.7 18.2
09:25 1013 29.91 842 24.86 7.2 44.9 33 -7.9 17.8
09:30 1013 29.91 842 24.86 7.2 45 34 -7.7 18.1
09:35 1013 29.91 842 24.86 7.4 45.4 33 -8 17.6
09:40 1013 29.91 842 24.86 7.6 45.8 33 -7.8 17.9
09:45 1013 29.91 842 24.86 7.8 46 32 -7.9 17.8
09:50 1013 29.91 842 24.86 8.1 46.6 32 -7.7 18.1
09:55 1013 29.91 842 24.86 8.3 47 31 -8 17.6
10:00 1013 29.91 842 24.86 8.6 47.5 30 -8.2 17.3
10:05 1013 29.91 842 24.86 8.5 47.3 30 -7.9 17.7
10:10 1013 29.91 842 24.86 8.8 47.9 31 -7.5 18.5
10:15 1013 29.91 842 24.86 9 48.1 30 -7.7 18.2
10:20 1013 29.91 842 24.86 9 48.2 30 -7.6 18.2
10:25 1013 29.91 842 24.86 9.1 48.4 31 -7.3 18.8
10:30 1013 29.91 842 24.86 8.8 47.9 30 -7.7 18.1
10:35 1013 29.91 842 24.86 8.8 47.9 31 -7.5 18.6
10:40 1013 29.91 842 24.86 9 48.1 30 -7.6 18.4
10:45 1013 29.91 842 24.86 8.8 47.9 31 -7.3 18.9
10:50 1013 29.91 842 24.86 9.1 48.3 30 -7.5 18.6
10:55 1013 29.91 842 24.86 9.3 48.7 31 -7.1 19.3
11:00 1013 29.91 842 24.86 9.2 48.5 30 -7.6 18.4
11:05 1013 29.91 842 24.86 9.3 48.7 29 -7.7 18.1
11:10 1013 29.91 842 24.86 9.5 49 29 -7.6 18.3
11:15 1013 29.91 842 24.86 9.7 49.5 30 -6.9 19.7
11:20 1013 29.91 842 24.86 9.6 49.3 31 -6.8 19.7
11:25 1013 29.91 842 24.86 9.5 49 30 -7 19.3
11:30 1013 29.91 842 24.86 9.5 49 30 -7.2 19.1
11:35 1013 29.91 842 24.86 9.8 49.7 29 -7.5 18.4
11:40 1013 29.91 842 24.86 10 50.1 30 -6.6 20
11:45 1013 29.91 842 24.86 10.1 50.3 29 -7.1 19.3
11:50 1014 29.94 843 24.89 9.8 49.6 31 -6.5 20.4
11:55 1014 29.94 843 24.89 8.4 47.1 45 -2.8 26.9
12:00 1014 29.94 843 24.89 6.4 43.5 54 -2.3 27.8
12:05 1014 29.94 843 24.89 5.4 41.8 59 -2 28.4
12:10 1014 29.94 843 24.89 4.9 40.9 62 -1.8 28.7
12:15 1014 29.94 843 24.89 4.8 40.7 63 -1.6 29.2
12:20 1014 29.94 843 24.89 4.8 40.6 63 -1.6 29.1
12:25 1014 29.94 843 24.89 4.8 40.7 64 -1.4 29.5
12:30 1014 29.94 844 24.92 4.9 40.8 65 -1.2 29.8
12:35 1014 29.94 844 24.92 5 41.1 65 -0.9 30.3
12:40 1015 29.97 844 24.92 5.1 41.2 64 -1.2 29.8
12:45 1015 29.97 844 24.92 5 41 65 -1.1 30
12:50 1015 29.97 844 24.92 5.1 41.2 64 -1.2 29.9
12:55 1015 29.97 844 24.92 5.5 41.9 62 -1.3 29.7
13:00 1015 29.97 844 24.92 5.6 42.1 61 -1.3 29.6
13:05 1014 29.94 844 24.92 5.7 42.3 61 -1.1 29.9
13:10 1014 29.94 843 24.89 5.4 41.7 58 -2.2 28
13:15 1014 29.94 843 24.89 5.6 42 59 -1.9 28.6
13:20 1014 29.94 843 24.89 5.9 42.6 59 -1.6 29.2
13:25 1014 29.94 843 24.89 6.6 43.9 54 -1.9 28.5
13:30 1014 29.94 843 24.89 6.9 44.4 54 -1.7 29
13:35 1014 29.94 843 24.89 6.6 43.8 54 -2.1 28.1
13:40 1014 29.94 843 24.89 6.3 43.3 55 -2 28.5
13:45 1014 29.94 843 24.89 6.3 43.4 55 -2.1 28.2
13:50 1014 29.94 843 24.89 6.4 43.5 54 -2.3 27.8
13:55 1014 29.94 843 24.89 6.4 43.6 53 -2.5 27.6
14:00 1014 29.94 843 24.89 6.4 43.5 53 -2.4 27.8
14:05 1014 29.94 843 24.89 6.5 43.8 52 -2.6 27.4
14:10 1014 29.94 843 24.89 6.7 44 53 -2.3 27.8
14:15 1014 29.94 843 24.89 6.6 43.8 52 -2.5 27.6
14:20 1014 29.94 843 24.89 6.5 43.6 53 -2.5 27.5
14:25 1014 29.94 843 24.89 6.7 44 53 -2.3 27.8
14:30 1014 29.94 843 24.89 6.4 43.5 50 -3.2 26.3
14:35 1014 29.94 843 24.89 6.5 43.7 53 -2.3 27.8
14:40 1013 29.91 843 24.89 6.5 43.7 52 -2.7 27.1
14:45 1013 29.91 843 24.89 6.2 43.2 54 -2.5 27.6
14:50 1014 29.94 843 24.89 6.2 43.1 52 -2.9 26.8
14:55 1014 29.94 843 24.89 6.7 44 44 -4.6 23.7
15:00 1013 29.91 843 24.89 7.6 45.7 41 -4.6 23.7
15:05 1013 29.91 843 24.89 9.1 48.3 31 -7.3 18.8
15:10 1014 29.94 843 24.89 9.8 49.7 31 -6.6 20.2
15:15 1014 29.94 843 24.89 9.9 49.8 30 -6.7 20
15:20 1014 29.94 843 24.89 9.8 49.6 30 -7 19.4
15:25 1014 29.94 843 24.89 10.3 50.5 30 -6.6 20.1
15:30 1014 29.94 843 24.89 10.5 50.9 30 -6.4 20.5
15:35 1014 29.94 843 24.89 10.7 51.3 31 -5.9 21.4
15:40 1014 29.94 843 24.89 10.9 51.5 28 -6.8 19.7
15:45 1013 29.91 843 24.89 10.4 50.8 30 -6.3 20.7
15:50 1014 29.94 843 24.89 10.1 50.2 29 -7.1 19.2
15:55 1014 29.94 843 24.89 9.9 49.9 28 -7.5 18.5
16:00 1014 29.94 843 24.89 9.8 49.6 28 -7.9 17.8
16:05 1014 29.94 843 24.89 9.7 49.4 29 -7.7 18.2
16:10 1014 29.94 843 24.89 9.6 49.2 30 -7.3 18.9
16:15 1014 29.94 843 24.89 9.5 49.1 30 -7.3 18.8
16:20 1014 29.94 843 24.89 8.8 47.9 45 -2.4 27.7
16:25 1014 29.94 843 24.89 7.2 45 49 -2.7 27.1
16:30 1014 29.94 843 24.89 6.2 43.2 52 -2.8 26.9
16:35 1014 29.94 844 24.92 5.5 42 55 -2.8 27
16:40 1014 29.94 844 24.92 5.2 41.3 56 -2.8 27
16:45 1015 29.97 844 24.92 5 41 57 -2.7 27.1
16:50 1015 29.97 844 24.92 5 41 57 -2.7 27.1
16:55 1015 29.97 844 24.92 5.1 41.2 57 -2.8 27
17:00 1015 29.97 844 24.92 5.2 41.3 56 -2.9 26.8
17:05 1015 29.97 844 24.92 5.2 41.3 57 -2.7 27.1
17:10 1015 29.97 844 24.92 5.2 41.3 57 -2.6 27.4
17:15 1015 29.97 844 24.92 5.1 41.2 57 -2.7 27.1
17:20 1015 29.97 844 24.92 4.8 40.7 60 -2.3 27.9
17:25 1015 29.97 844 24.92 4.8 40.6 57 -3.1 26.4
17:30 1015 29.97 844 24.92 4.7 40.5 55 -3.5 25.7
17:35 1015 29.97 844 24.92 4.9 40.8 54 -3.5 25.6
17:40 1015 29.97 845 24.95 4.9 40.9 55 -3.4 25.9
17:45 1015 29.97 845 24.95 5 40.9 54 -3.5 25.7
17:50 1015 29.97 845 24.95 5.1 41.1 54 -3.5 25.7
17:55 1016 30 845 24.95 5.2 41.3 53 -3.5 25.7
18:00 1016 30 845 24.95 5.2 41.3 53 -3.7 25.4
18:05 1016 30 845 24.95 5.2 41.4 53 -3.5 25.7
18:10 1015 29.97 845 24.95 5 41.1 54 -3.6 25.6
18:15 1016 30 845 24.95 4.9 40.8 54 -3.6 25.5
18:20 1016 30 845 24.95 4.8 40.7 54 -3.6 25.5
18:25 1016 30 845 24.95 4.7 40.5 56 -3.3 26
18:30 1016 30 845 24.95 4.4 39.9 57 -3.4 25.9
18:35 1016 30 845 24.95 4.4 39.9 57 -3.5 25.7
18:40 1016 30 845 24.95 4.2 39.6 57 -3.6 25.6
18:45 1015 29.97 845 24.95 4.2 39.6 57 -3.4 25.8
18:50 1015 29.97 845 24.95 4.2 39.6 56 -3.7 25.3
18:55 1015 29.97 845 24.95 4.3 39.8 56 -3.7 25.4
19:00 1015 29.97 845 24.95 4.3 39.8 57 -3.6 25.6
19:05 1015 29.97 845 24.95 4.2 39.6 56 -3.9 25
19:10 1015 29.97 845 24.95 4.3 39.7 55 -3.9 25
19:15 1015 29.97 845 24.95 4.3 39.7 56 -3.8 25.2
19:20 1015 29.97 844 24.92 4.3 39.7 56 -3.8 25.2
19:25 1015 29.97 844 24.92 4.2 39.5 56 -3.8 25.1
19:30 1015 29.97 844 24.92 4.2 39.5 56 -3.8 25.1
19:35 1015 29.97 844 24.92 4.4 39.9 56 -3.7 25.3
19:40 1015 29.97 844 24.92 4.5 40.1 55 -3.8 25.2
19:45 1015 29.97 844 24.92 4.3 39.8 56 -3.7 25.3
19:50 1015 29.97 844 24.92 4.3 39.7 56 -3.8 25.1
19:55 1015 29.97 844 24.92 4.2 39.6 56 -3.7 25.3
20:00 1015 29.97 844 24.92 4.3 39.7 56 -3.8 25.1
20:05 1015 29.97 844 24.92 4.4 40 55 -3.9 24.9
20:10 1015 29.97 844 24.92 4.5 40.1 55 -3.8 25.2
20:15 1015 29.97 844 24.92 4.5 40 55 -3.9 25
20:20 1015 29.97 844 24.92 4.5 40.1 54 -3.9 25
20:25 1015 29.97 844 24.92 4.5 40.1 55 -3.8 25.2
20:30 1015 29.97 844 24.92 4.5 40 54 -3.9 24.9
20:35 1015 29.97 844 24.92 4.5 40 55 -3.9 25
20:40 1015 29.97 844 24.92 4.4 40 55 -3.8 25.2
20:45 1015 29.97 844 24.92 4.4 39.9 55 -3.9 25.1
20:50 1015 29.97 844 24.92 4.4 39.9 55 -3.8 25.1
20:55 1015 29.97 844 24.92 4.4 39.8 55 -3.9 25
21:00 1015 29.97 844 24.92 4.4 39.9 55 -3.9 24.9
21:05 1015 29.97 844 24.92 4.3 39.7 56 -3.8 25.2
21:10 1015 29.97 844 24.92 4.3 39.7 55 -3.9 25.1
21:15 1015 29.97 844 24.92 4.3 39.7 56 -3.8 25.2
21:20 1015 29.97 844 24.92 4 39.2 60 -3.1 26.4
21:25 1015 29.97 844 24.92 3.2 37.8 62 -3.3 26
21:30 1015 29.97 844 24.92 3.1 37.6 61 -3.6 25.5
21:35 1015 29.97 844 24.92 3.1 37.6 61 -3.6 25.5
21:40 1015 29.97 844 24.92 3.2 37.8 61 -3.5 25.6
21:45 1015 29.97 844 24.92 3.4 38.1 60 -3.6 25.4
21:50 1015 29.97 844 24.92 3.5 38.3 60 -3.6 25.5
21:55 1015 29.97 844 24.92 3.6 38.5 59 -3.6 25.6
22:00 1015 29.97 844 24.92 3.6 38.5 60 -3.5 25.7
22:05 1015 29.97 844 24.92 3.6 38.5 60 -3.5 25.7
22:10 1015 29.97 844 24.92 3.6 38.4 60 -3.4 25.8
22:15 1015 29.97 844 24.92 3.4 38.2 60 -3.5 25.7
22:20 1015 29.97 844 24.92 3.3 38 60 -3.7 25.3
22:25 1015 29.97 845 24.95 3.2 37.8 60 -3.7 25.3
22:30 1015 29.97 845 24.95 3.2 37.7 61 -3.6 25.6
22:35 1016 30 845 24.95 2.9 37.3 62 -3.5 25.6
22:40 1016 30 845 24.95 2.6 36.8 63 -3.6 25.5
22:45 1016 30 845 24.95 2.4 36.4 65 -3.5 25.8
22:50 1016 30 845 24.95 2.3 36.1 67 -3.3 26.1
22:55 1016 30 845 24.95 2.2 35.9 68 -3.2 26.3
23:00 1016 30 845 24.95 1.9 35.4 69 -3.2 26.3
23:05 1016 30 846 24.98 1.8 35.2 70 -3.2 26.2
23:10 1017 30.03 846 24.98 1.7 35.1 71 -3.1 26.5
23:15 1017 30.03 846 24.98 1.7 35 72 -2.9 26.8
23:20 1017 30.03 846 24.98 1.7 35 72 -2.8 26.9
23:25 1017 30.03 846 24.98 1.7 35 73 -2.7 27.2
23:30 1017 30.03 846 24.98 1.7 35 74 -2.5 27.5
23:35 1017 30.03 846 24.98 1.3 34.3 76 -2.4 27.6
23:40 1017 30.03 846 24.98 1.1 34 78 -2.4 27.7
23:45 1017 30.03 846 24.98 1 33.8 78 -2.4 27.8
23:50 1017 30.03 846 24.98 0.9 33.6 80 -2.2 28
23:55 1017 30.03 846 24.98 0.8 33.4 81 -2.1 28.2
24:00 1017 30.03 846 24.98 0.8 33.4 81 -2.1 28.2